iso_date,Year,Hour,Min,DOY,POS_DOY,Lat,Lon,BP,Ts,Ta,has_bp,has_ts,has_ta,BuoyID,Buoy_Type,Buoy_Owner,Logistics,Hemisphere
2021-11-23T16:00:02Z,2021,16,0,327.6667,327.6667,78.806,11.072,1018.7,-1.01,-999.0,yes,yes,no,300234068340970,BD2GHI,AOML,ALLIANCE,North
2021-11-23T16:59:57Z,2021,17,0,327.7083,327.7083,78.807,11.072,1020.1,-0.87,-999.0,yes,yes,no,300234068340970,BD2GHI,AOML,ALLIANCE,North
2021-11-23T18:00:00Z,2021,18,0,327.75,327.75,78.806,11.073,1018.3,-0.77,-999.0,yes,yes,no,300234068340970,BD2GHI,AOML,ALLIANCE,North
2021-11-23T19:00:02Z,2021,19,0,327.7917,327.7917,78.806,11.072,1016.4,-0.65,-999.0,yes,yes,no,300234068340970,BD2GHI,AOML,ALLIANCE,North
2021-11-23T19:59:57Z,2021,20,0,327.8333,327.8333,78.805,11.076,1018.7,-0.47,-999.0,yes,yes,no,300234068340970,BD2GHI,AOML,ALLIANCE,North
2021-11-23T21:00:00Z,2021,21,0,327.875,327.875,78.806,11.073,1019.0,-0.54,-999.0,yes,yes,no,300234068340970,BD2GHI,AOML,ALLIANCE,North
2021-11-23T22:00:02Z,2021,22,0,327.9167,327.9167,78.806,11.073,1019.3,-0.48,-999.0,yes,yes,no,300234068340970,BD2GHI,AOML,ALLIANCE,North
2021-11-23T22:59:57Z,2021,23,0,327.9583,327.9583,78.806,11.073,1019.3,-0.25,-999.0,yes,yes,no,300234068340970,BD2GHI,AOML,ALLIANCE,North
2021-11-24T00:00:00Z,2021,0,0,328.0,328.0,78.806,11.072,1019.2,-0.12,-999.0,yes,yes,no,300234068340970,BD2GHI,AOML,ALLIANCE,North
2021-11-24T01:00:02Z,2021,1,0,328.0417,328.0417,78.806,11.074,1019.2,-0.07,-999.0,yes,yes,no,300234068340970,BD2GHI,AOML,ALLIANCE,North
2021-11-24T01:59:57Z,2021,2,0,328.0833,328.0833,78.807,11.075,1019.4,-0.04,-999.0,yes,yes,no,300234068340970,BD2GHI,AOML,ALLIANCE,North
2021-11-24T03:00:00Z,2021,3,0,328.125,328.125,78.807,11.076,1019.4,-0.01,-999.0,yes,yes,no,300234068340970,BD2GHI,AOML,ALLIANCE,North
2021-11-24T04:00:02Z,2021,4,0,328.1667,328.1667,78.807,11.075,1019.3,0.06,-999.0,yes,yes,no,300234068340970,BD2GHI,AOML,ALLIANCE,North
2021-11-24T04:59:57Z,2021,5,0,328.2083,328.2083,78.807,11.074,1019.5,0.05,-999.0,yes,yes,no,300234068340970,BD2GHI,AOML,ALLIANCE,North
2021-11-24T06:00:00Z,2021,6,0,328.25,328.25,78.806,11.073,1019.5,0.07,-999.0,yes,yes,no,300234068340970,BD2GHI,AOML,ALLIANCE,North
2021-11-24T07:00:02Z,2021,7,0,328.2917,328.2917,78.806,11.072,1020.0,0.06,-999.0,yes,yes,no,300234068340970,BD2GHI,AOML,ALLIANCE,North
2021-11-24T07:59:57Z,2021,8,0,328.3333,328.3333,78.806,11.072,1020.5,0.06,-999.0,yes,yes,no,300234068340970,BD2GHI,AOML,ALLIANCE,North
2021-11-24T09:00:00Z,2021,9,0,328.375,328.375,78.807,11.073,1021.1,0.04,-999.0,yes,yes,no,300234068340970,BD2GHI,AOML,ALLIANCE,North
2021-11-24T10:00:02Z,2021,10,0,328.4167,328.4167,78.807,11.071,1020.7,0.11,-999.0,yes,yes,no,300234068340970,BD2GHI,AOML,ALLIANCE,North
2021-11-24T10:59:57Z,2021,11,0,328.4583,328.4583,78.807,11.072,1020.8,0.27,-999.0,yes,yes,no,300234068340970,BD2GHI,AOML,ALLIANCE,North
2021-11-24T12:00:00Z,2021,12,0,328.5,328.5,78.806,11.072,1020.3,0.28,-999.0,yes,yes,no,300234068340970,BD2GHI,AOML,ALLIANCE,North
2021-11-24T13:00:02Z,2021,13,0,328.5417,328.5417,78.806,11.073,1020.0,0.27,-999.0,yes,yes,no,300234068340970,BD2GHI,AOML,ALLIANCE,North
2021-11-24T13:59:57Z,2021,14,0,328.5833,328.5833,78.807,11.072,1019.4,0.26,-999.0,yes,yes,no,300234068340970,BD2GHI,AOML,ALLIANCE,North
2021-11-24T15:00:00Z,2021,15,0,328.625,328.625,78.806,11.069,1019.1,0.28,-999.0,yes,yes,no,300234068340970,BD2GHI,AOML,ALLIANCE,North
2021-11-24T16:00:02Z,2021,16,0,328.6667,328.6667,78.806,11.072,1018.6,0.24,-999.0,yes,yes,no,300234068340970,BD2GHI,AOML,ALLIANCE,North
2021-11-24T16:59:57Z,2021,17,0,328.7083,328.7083,78.806,11.072,1017.9,0.21,-999.0,yes,yes,no,300234068340970,BD2GHI,AOML,ALLIANCE,North
2021-11-24T18:00:00Z,2021,18,0,328.75,328.75,78.806,11.073,1017.6,0.18,-999.0,yes,yes,no,300234068340970,BD2GHI,AOML,ALLIANCE,North
2021-11-24T19:00:02Z,2021,19,0,328.7917,328.7917,78.807,11.072,1017.1,0.18,-999.0,yes,yes,no,300234068340970,BD2GHI,AOML,ALLIANCE,North
2021-11-24T19:59:57Z,2021,20,0,328.8333,328.8333,78.806,11.073,1016.6,-0.09,-999.0,yes,yes,no,300234068340970,BD2GHI,AOML,ALLIANCE,North
2021-11-24T21:00:00Z,2021,21,0,328.875,328.875,78.805,11.067,1016.2,-0.09,-999.0,yes,yes,no,300234068340970,BD2GHI,AOML,ALLIANCE,North
2021-11-24T22:00:02Z,2021,22,0,328.9167,328.9167,78.806,11.073,1015.7,-0.03,-999.0,yes,yes,no,300234068340970,BD2GHI,AOML,ALLIANCE,North
2021-11-24T22:59:57Z,2021,23,0,328.9583,328.9583,78.806,11.073,1015.2,-0.02,-999.0,yes,yes,no,300234068340970,BD2GHI,AOML,ALLIANCE,North
2021-11-25T00:00:00Z,2021,0,0,329.0,329.0,78.806,11.072,1014.5,-0.08,-999.0,yes,yes,no,300234068340970,BD2GHI,AOML,ALLIANCE,North
2021-11-25T01:00:02Z,2021,1,0,329.0417,329.0417,78.806,11.073,1013.8,-0.14,-999.0,yes,yes,no,300234068340970,BD2GHI,AOML,ALLIANCE,North
2021-11-25T01:59:57Z,2021,2,0,329.0833,329.0833,78.806,11.073,1013.2,-0.17,-999.0,yes,yes,no,300234068340970,BD2GHI,AOML,ALLIANCE,North
2021-11-25T03:00:00Z,2021,3,0,329.125,329.125,78.806,11.073,1012.4,-0.08,-999.0,yes,yes,no,300234068340970,BD2GHI,AOML,ALLIANCE,North
2021-11-25T04:00:02Z,2021,4,0,329.1667,329.1667,78.806,11.073,1012.0,-0.04,-999.0,yes,yes,no,300234068340970,BD2GHI,AOML,ALLIANCE,North
2021-11-25T04:59:57Z,2021,5,0,329.2083,329.2083,78.806,11.073,1011.6,-0.11,-999.0,yes,yes,no,300234068340970,BD2GHI,AOML,ALLIANCE,North
2021-11-25T06:00:00Z,2021,6,0,329.25,329.25,78.806,11.073,1011.1,-0.1,-999.0,yes,yes,no,300234068340970,BD2GHI,AOML,ALLIANCE,North
2021-11-25T07:00:02Z,2021,7,0,329.2917,329.2917,78.806,11.073,1010.5,-0.21,-999.0,yes,yes,no,300234068340970,BD2GHI,AOML,ALLIANCE,North
2021-11-25T07:59:57Z,2021,8,0,329.3333,329.3333,78.806,11.073,1010.5,-0.2,-999.0,yes,yes,no,300234068340970,BD2GHI,AOML,ALLIANCE,North
2021-11-25T09:00:00Z,2021,9,0,329.375,329.375,78.806,11.073,1010.0,-0.14,-999.0,yes,yes,no,300234068340970,BD2GHI,AOML,ALLIANCE,North
2021-11-25T10:00:02Z,2021,10,0,329.4167,329.4167,78.806,11.073,1009.6,0.01,-999.0,yes,yes,no,300234068340970,BD2GHI,AOML,ALLIANCE,North
2021-11-25T12:00:00Z,2021,12,0,329.5,329.5,78.806,11.073,1007.9,0.43,-999.0,yes,yes,no,300234068340970,BD2GHI,AOML,ALLIANCE,North
2021-11-25T13:00:02Z,2021,13,0,329.5417,329.5417,78.806,11.073,1007.4,0.49,-999.0,yes,yes,no,300234068340970,BD2GHI,AOML,ALLIANCE,North
2021-11-25T13:59:57Z,2021,14,0,329.5833,329.5833,78.806,11.073,1006.8,0.31,-999.0,yes,yes,no,300234068340970,BD2GHI,AOML,ALLIANCE,North
2021-11-25T15:00:00Z,2021,15,0,329.625,329.625,78.806,11.074,1006.1,0.05,-999.0,yes,yes,no,300234068340970,BD2GHI,AOML,ALLIANCE,North
2021-11-25T18:01:00Z,2021,18,1,329.7507,329.7507,78.806,11.073,1004.5,-0.91,-999.0,yes,yes,no,300234068340970,BD2GHI,AOML,ALLIANCE,North
2021-11-25T19:01:03Z,2021,19,1,329.7924,329.7924,78.806,11.073,1004.3,-0.88,-999.0,yes,yes,no,300234068340970,BD2GHI,AOML,ALLIANCE,North
2021-11-25T20:00:57Z,2021,20,1,329.834,329.834,78.806,11.067,1003.5,-1.18,-999.0,yes,yes,no,300234068340970,BD2GHI,AOML,ALLIANCE,North
2021-11-25T21:02:00Z,2021,21,2,329.8764,329.8764,78.806,11.074,1003.1,-1.43,-999.0,yes,yes,no,300234068340970,BD2GHI,AOML,ALLIANCE,North
2021-11-25T22:01:03Z,2021,22,1,329.9174,329.9174,78.806,11.074,1003.0,-1.51,-999.0,yes,yes,no,300234068340970,BD2GHI,AOML,ALLIANCE,North
2021-11-25T22:59:57Z,2021,23,0,329.9583,329.9583,78.807,11.072,1002.7,-1.27,-999.0,yes,yes,no,300234068340970,BD2GHI,AOML,ALLIANCE,North
2021-11-26T00:00:00Z,2021,0,0,330.0,330.0,78.806,11.071,1002.4,-1.01,-999.0,yes,yes,no,300234068340970,BD2GHI,AOML,ALLIANCE,North
2021-11-26T01:00:02Z,2021,1,0,330.0417,330.0417,78.806,11.072,1002.2,-0.73,-999.0,yes,yes,no,300234068340970,BD2GHI,AOML,ALLIANCE,North
2021-11-26T01:59:57Z,2021,2,0,330.0833,330.0833,78.806,11.072,1002.2,-0.65,-999.0,yes,yes,no,300234068340970,BD2GHI,AOML,ALLIANCE,North
2021-11-26T03:01:00Z,2021,3,1,330.1257,330.1257,78.807,11.071,1002.0,-0.62,-999.0,yes,yes,no,300234068340970,BD2GHI,AOML,ALLIANCE,North
2021-11-26T04:00:02Z,2021,4,0,330.1667,330.1667,78.806,11.072,1001.8,-0.62,-999.0,yes,yes,no,300234068340970,BD2GHI,AOML,ALLIANCE,North
2021-11-26T04:59:57Z,2021,5,0,330.2083,330.2083,78.806,11.074,1002.0,-0.59,-999.0,yes,yes,no,300234068340970,BD2GHI,AOML,ALLIANCE,North
2021-11-26T06:00:00Z,2021,6,0,330.25,330.25,78.806,11.073,1001.6,-0.55,-999.0,yes,yes,no,300234068340970,BD2GHI,AOML,ALLIANCE,North
2021-11-26T07:00:02Z,2021,7,0,330.2917,330.2917,78.806,11.073,1001.3,-0.51,-999.0,yes,yes,no,300234068340970,BD2GHI,AOML,ALLIANCE,North
2021-11-26T07:59:57Z,2021,8,0,330.3333,330.3333,78.806,11.073,1001.3,-0.45,-999.0,yes,yes,no,300234068340970,BD2GHI,AOML,ALLIANCE,North
2021-11-26T09:00:00Z,2021,9,0,330.375,330.375,78.806,11.073,1001.2,-0.37,-999.0,yes,yes,no,300234068340970,BD2GHI,AOML,ALLIANCE,North
2021-11-26T10:00:02Z,2021,10,0,330.4167,330.4167,78.807,11.071,1001.8,-0.2,-999.0,yes,yes,no,300234068340970,BD2GHI,AOML,ALLIANCE,North
2021-11-26T10:59:57Z,2021,11,0,330.4583,330.4583,78.807,11.075,1001.9,0.02,-999.0,yes,yes,no,300234068340970,BD2GHI,AOML,ALLIANCE,North
2021-11-26T12:00:00Z,2021,12,0,330.5,330.5,78.806,11.074,1002.3,0.13,-999.0,yes,yes,no,300234068340970,BD2GHI,AOML,ALLIANCE,North
2021-11-26T13:00:02Z,2021,13,0,330.5417,330.5417,78.806,11.072,1002.4,0.16,-999.0,yes,yes,no,300234068340970,BD2GHI,AOML,ALLIANCE,North
2021-11-26T13:59:57Z,2021,14,0,330.5833,330.5833,78.806,11.073,1002.8,0.17,-999.0,yes,yes,no,300234068340970,BD2GHI,AOML,ALLIANCE,North
2021-11-26T15:00:00Z,2021,15,0,330.625,330.625,78.806,11.073,1003.2,0.11,-999.0,yes,yes,no,300234068340970,BD2GHI,AOML,ALLIANCE,North
2021-11-26T16:00:02Z,2021,16,0,330.6667,330.6667,78.806,11.072,1003.5,0.0,-999.0,yes,yes,no,300234068340970,BD2GHI,AOML,ALLIANCE,North
2021-11-26T16:59:57Z,2021,17,0,330.7083,330.7083,78.806,11.072,1004.3,0.0,-999.0,yes,yes,no,300234068340970,BD2GHI,AOML,ALLIANCE,North
2021-11-26T18:00:00Z,2021,18,0,330.75,330.75,78.806,11.072,1004.1,0.0,-999.0,yes,yes,no,300234068340970,BD2GHI,AOML,ALLIANCE,North
2021-11-26T19:00:02Z,2021,19,0,330.7917,330.7917,78.806,11.073,1004.1,0.07,-999.0,yes,yes,no,300234068340970,BD2GHI,AOML,ALLIANCE,North
2021-11-26T19:59:57Z,2021,20,0,330.8333,330.8333,78.806,11.072,1004.2,0.06,-999.0,yes,yes,no,300234068340970,BD2GHI,AOML,ALLIANCE,North
2021-11-26T21:00:00Z,2021,21,0,330.875,330.875,78.806,11.072,1004.3,0.04,-999.0,yes,yes,no,300234068340970,BD2GHI,AOML,ALLIANCE,North
2021-11-26T22:00:02Z,2021,22,0,330.9167,330.9167,78.806,11.073,1003.9,0.1,-999.0,yes,yes,no,300234068340970,BD2GHI,AOML,ALLIANCE,North
2021-11-26T22:59:57Z,2021,23,0,330.9583,330.9583,78.806,11.071,1003.8,0.08,-999.0,yes,yes,no,300234068340970,BD2GHI,AOML,ALLIANCE,North
2021-11-27T00:00:00Z,2021,0,0,331.0,331.0,78.806,11.071,1003.5,0.07,-999.0,yes,yes,no,300234068340970,BD2GHI,AOML,ALLIANCE,North
2021-11-27T01:00:02Z,2021,1,0,331.0417,331.0417,78.806,11.072,1004.1,0.1,-999.0,yes,yes,no,300234068340970,BD2GHI,AOML,ALLIANCE,North
2021-11-27T01:59:57Z,2021,2,0,331.0833,331.0833,78.806,11.072,1004.0,0.06,-999.0,yes,yes,no,300234068340970,BD2GHI,AOML,ALLIANCE,North
2021-11-27T03:00:00Z,2021,3,0,331.125,331.125,78.806,11.072,1005.6,0.04,-999.0,yes,yes,no,300234068340970,BD2GHI,AOML,ALLIANCE,North
2021-11-27T04:00:02Z,2021,4,0,331.1667,331.1667,78.806,11.072,1000.9,0.01,-999.0,yes,yes,no,300234068340970,BD2GHI,AOML,ALLIANCE,North
2021-11-27T04:59:57Z,2021,5,0,331.2083,331.2083,78.806,11.073,1000.2,-0.01,-999.0,yes,yes,no,300234068340970,BD2GHI,AOML,ALLIANCE,North
2021-11-27T06:00:00Z,2021,6,0,331.25,331.25,78.806,11.074,999.5,0.03,-999.0,yes,yes,no,300234068340970,BD2GHI,AOML,ALLIANCE,North
2021-11-27T07:00:02Z,2021,7,0,331.2917,331.2917,78.806,11.073,998.7,0.04,-999.0,yes,yes,no,300234068340970,BD2GHI,AOML,ALLIANCE,North
2021-11-27T07:59:57Z,2021,8,0,331.3333,331.3333,78.807,11.073,999.3,0.03,-999.0,yes,yes,no,300234068340970,BD2GHI,AOML,ALLIANCE,North
2021-11-27T09:00:00Z,2021,9,0,331.375,331.375,78.807,11.071,1000.3,0.0,-999.0,yes,yes,no,300234068340970,BD2GHI,AOML,ALLIANCE,North
2021-11-27T10:00:02Z,2021,10,0,331.4167,331.4167,78.807,11.069,1001.6,-0.04,-999.0,yes,yes,no,300234068340970,BD2GHI,AOML,ALLIANCE,North
2021-11-27T13:00:02Z,2021,13,0,331.5417,331.5417,78.806,11.075,1002.9,-0.19,-999.0,yes,yes,no,300234068340970,BD2GHI,AOML,ALLIANCE,North
2021-11-27T13:59:57Z,2021,14,0,331.5833,331.5833,78.806,11.073,1003.0,-0.17,-999.0,yes,yes,no,300234068340970,BD2GHI,AOML,ALLIANCE,North
2021-11-27T15:00:00Z,2021,15,0,331.625,331.625,78.806,11.072,1004.6,-0.14,-999.0,yes,yes,no,300234068340970,BD2GHI,AOML,ALLIANCE,North
2021-11-27T16:00:02Z,2021,16,0,331.6667,331.6667,78.807,11.071,1005.5,-0.12,-999.0,yes,yes,no,300234068340970,BD2GHI,AOML,ALLIANCE,North
2021-11-27T16:59:57Z,2021,17,0,331.7083,331.7083,78.807,11.07,1004.5,-0.08,-999.0,yes,yes,no,300234068340970,BD2GHI,AOML,ALLIANCE,North
2021-11-27T18:00:00Z,2021,18,0,331.75,331.75,78.806,11.071,1004.7,-0.02,-999.0,yes,yes,no,300234068340970,BD2GHI,AOML,ALLIANCE,North
2021-11-27T19:01:03Z,2021,19,1,331.7924,331.7924,78.806,11.072,1005.5,0.03,-999.0,yes,yes,no,300234068340970,BD2GHI,AOML,ALLIANCE,North
2021-11-27T19:59:57Z,2021,20,0,331.8333,331.8333,78.806,11.072,1006.3,0.03,-999.0,yes,yes,no,300234068340970,BD2GHI,AOML,ALLIANCE,North
2021-11-27T21:00:00Z,2021,21,0,331.875,331.875,78.806,11.072,1006.9,-0.01,-999.0,yes,yes,no,300234068340970,BD2GHI,AOML,ALLIANCE,North
2021-11-27T22:00:02Z,2021,22,0,331.9167,331.9167,78.806,11.073,1006.8,-0.08,-999.0,yes,yes,no,300234068340970,BD2GHI,AOML,ALLIANCE,North
2021-11-27T22:59:57Z,2021,23,0,331.9583,331.9583,78.807,11.07,1007.2,-0.06,-999.0,yes,yes,no,300234068340970,BD2GHI,AOML,ALLIANCE,North
2021-11-28T00:00:00Z,2021,0,0,332.0,332.0,78.806,11.073,1007.1,-0.02,-999.0,yes,yes,no,300234068340970,BD2GHI,AOML,ALLIANCE,North
2021-11-28T01:00:02Z,2021,1,0,332.0417,332.0417,78.806,11.072,1007.3,-0.1,-999.0,yes,yes,no,300234068340970,BD2GHI,AOML,ALLIANCE,North
2021-11-28T01:59:57Z,2021,2,0,332.0833,332.0833,78.806,11.07,1007.2,-0.09,-999.0,yes,yes,no,300234068340970,BD2GHI,AOML,ALLIANCE,North
2021-11-28T03:00:00Z,2021,3,0,332.125,332.125,78.807,11.074,1007.8,-0.15,-999.0,yes,yes,no,300234068340970,BD2GHI,AOML,ALLIANCE,North
2021-11-28T04:00:02Z,2021,4,0,332.1667,332.1667,78.807,11.074,1007.9,-0.16,-999.0,yes,yes,no,300234068340970,BD2GHI,AOML,ALLIANCE,North
2021-11-28T04:59:57Z,2021,5,0,332.2083,332.2083,78.806,11.076,1007.7,-0.17,-999.0,yes,yes,no,300234068340970,BD2GHI,AOML,ALLIANCE,North
2021-11-28T06:00:00Z,2021,6,0,332.25,332.25,78.806,11.075,1007.7,-0.2,-999.0,yes,yes,no,300234068340970,BD2GHI,AOML,ALLIANCE,North
2021-11-28T07:00:02Z,2021,7,0,332.2917,332.2917,78.806,11.074,1008.0,-0.28,-999.0,yes,yes,no,300234068340970,BD2GHI,AOML,ALLIANCE,North
2021-11-28T07:59:57Z,2021,8,0,332.3333,332.3333,78.806,11.072,1006.1,-0.31,-999.0,yes,yes,no,300234068340970,BD2GHI,AOML,ALLIANCE,North
2021-11-28T09:00:00Z,2021,9,0,332.375,332.375,78.806,11.07,1005.5,-0.33,-999.0,yes,yes,no,300234068340970,BD2GHI,AOML,ALLIANCE,North
2021-11-28T10:00:02Z,2021,10,0,332.4167,332.4167,78.806,11.07,1005.0,-0.34,-999.0,yes,yes,no,300234068340970,BD2GHI,AOML,ALLIANCE,North
2021-11-28T10:59:57Z,2021,11,0,332.4583,332.4583,78.806,11.072,1004.9,-0.48,-999.0,yes,yes,no,300234068340970,BD2GHI,AOML,ALLIANCE,North
2021-11-28T13:00:02Z,2021,13,0,332.5417,332.5417,78.806,11.073,1005.5,-0.4,-999.0,yes,yes,no,300234068340970,BD2GHI,AOML,ALLIANCE,North
2021-11-28T13:59:57Z,2021,14,0,332.5833,332.5833,78.807,11.071,1005.4,-0.44,-999.0,yes,yes,no,300234068340970,BD2GHI,AOML,ALLIANCE,North
2021-11-28T15:00:00Z,2021,15,0,332.625,332.625,78.806,11.071,1005.7,-0.44,-999.0,yes,yes,no,300234068340970,BD2GHI,AOML,ALLIANCE,North
2021-11-28T16:00:02Z,2021,16,0,332.6667,332.6667,78.807,11.068,1006.4,-0.48,-999.0,yes,yes,no,300234068340970,BD2GHI,AOML,ALLIANCE,North
2021-11-28T16:59:57Z,2021,17,0,332.7083,332.7083,78.806,11.072,1006.5,-0.49,-999.0,yes,yes,no,300234068340970,BD2GHI,AOML,ALLIANCE,North
2021-11-28T18:00:00Z,2021,18,0,332.75,332.75,78.806,11.072,1007.1,-0.52,-999.0,yes,yes,no,300234068340970,BD2GHI,AOML,ALLIANCE,North
2021-11-28T19:00:02Z,2021,19,0,332.7917,332.7917,78.806,11.071,1007.4,-0.58,-999.0,yes,yes,no,300234068340970,BD2GHI,AOML,ALLIANCE,North
2021-11-28T19:59:57Z,2021,20,0,332.8333,332.8333,78.807,11.074,1007.4,-0.61,-999.0,yes,yes,no,300234068340970,BD2GHI,AOML,ALLIANCE,North
2021-11-28T21:00:00Z,2021,21,0,332.875,332.875,78.806,11.078,1007.4,-0.56,-999.0,yes,yes,no,300234068340970,BD2GHI,AOML,ALLIANCE,North
2021-11-28T22:00:02Z,2021,22,0,332.9167,332.9167,78.807,11.079,1009.7,-0.59,-999.0,yes,yes,no,300234068340970,BD2GHI,AOML,ALLIANCE,North
2021-11-28T22:59:57Z,2021,23,0,332.9583,332.9583,78.806,11.076,1009.9,-0.62,-999.0,yes,yes,no,300234068340970,BD2GHI,AOML,ALLIANCE,North
2021-11-29T00:00:00Z,2021,0,0,333.0,333.0,78.806,11.073,1009.9,-0.69,-999.0,yes,yes,no,300234068340970,BD2GHI,AOML,ALLIANCE,North
2021-11-29T01:00:02Z,2021,1,0,333.0417,333.0417,78.807,11.072,1009.9,-0.76,-999.0,yes,yes,no,300234068340970,BD2GHI,AOML,ALLIANCE,North
2021-11-29T01:59:57Z,2021,2,0,333.0833,333.0833,78.806,11.076,1010.1,-0.8,-999.0,yes,yes,no,300234068340970,BD2GHI,AOML,ALLIANCE,North
2021-11-29T03:00:00Z,2021,3,0,333.125,333.125,78.808,11.073,1010.3,-0.82,-999.0,yes,yes,no,300234068340970,BD2GHI,AOML,ALLIANCE,North
2021-11-29T04:00:02Z,2021,4,0,333.1667,333.1667,78.807,11.074,1010.4,-1.11,-999.0,yes,yes,no,300234068340970,BD2GHI,AOML,ALLIANCE,North
2021-11-29T04:59:57Z,2021,5,0,333.2083,333.2083,78.807,11.074,1010.3,-1.3,-999.0,yes,yes,no,300234068340970,BD2GHI,AOML,ALLIANCE,North
2021-11-29T06:00:00Z,2021,6,0,333.25,333.25,78.806,11.073,1010.5,-1.22,-999.0,yes,yes,no,300234068340970,BD2GHI,AOML,ALLIANCE,North
2021-11-29T07:00:02Z,2021,7,0,333.2917,333.2917,78.807,11.073,1010.7,-1.02,-999.0,yes,yes,no,300234068340970,BD2GHI,AOML,ALLIANCE,North
2021-11-29T07:59:57Z,2021,8,0,333.3333,333.3333,78.807,11.073,1010.7,-0.96,-999.0,yes,yes,no,300234068340970,BD2GHI,AOML,ALLIANCE,North
2021-11-29T09:00:00Z,2021,9,0,333.375,333.375,78.806,11.07,1011.1,-1.35,-999.0,yes,yes,no,300234068340970,BD2GHI,AOML,ALLIANCE,North
2021-11-29T10:00:02Z,2021,10,0,333.4167,333.4167,78.806,11.072,1011.2,-1.17,-999.0,yes,yes,no,300234068340970,BD2GHI,AOML,ALLIANCE,North
2021-11-29T10:59:57Z,2021,11,0,333.4583,333.4583,78.806,11.073,1011.1,-1.16,-999.0,yes,yes,no,300234068340970,BD2GHI,AOML,ALLIANCE,North
2021-11-29T12:00:00Z,2021,12,0,333.5,333.5,78.806,11.073,1011.0,-1.37,-999.0,yes,yes,no,300234068340970,BD2GHI,AOML,ALLIANCE,North
2021-11-29T13:00:02Z,2021,13,0,333.5417,333.5417,78.806,11.074,1010.9,-1.35,-999.0,yes,yes,no,300234068340970,BD2GHI,AOML,ALLIANCE,North
2021-11-29T13:59:57Z,2021,14,0,333.5833,333.5833,78.806,11.075,1010.8,-1.63,-999.0,yes,yes,no,300234068340970,BD2GHI,AOML,ALLIANCE,North
2021-11-29T15:00:00Z,2021,15,0,333.625,333.625,78.807,11.073,1010.9,-1.78,-999.0,yes,yes,no,300234068340970,BD2GHI,AOML,ALLIANCE,North
2021-11-29T16:00:02Z,2021,16,0,333.6667,333.6667,78.806,11.069,1010.7,-1.61,-999.0,yes,yes,no,300234068340970,BD2GHI,AOML,ALLIANCE,North
2021-11-29T16:59:57Z,2021,17,0,333.7083,333.7083,78.806,11.073,1010.4,-0.77,-999.0,yes,yes,no,300234068340970,BD2GHI,AOML,ALLIANCE,North
2021-11-29T18:00:00Z,2021,18,0,333.75,333.75,78.807,11.072,1010.6,-0.86,-999.0,yes,yes,no,300234068340970,BD2GHI,AOML,ALLIANCE,North
2021-11-29T19:00:02Z,2021,19,0,333.7917,333.7917,78.806,11.072,1010.4,-1.11,-999.0,yes,yes,no,300234068340970,BD2GHI,AOML,ALLIANCE,North
2021-11-29T19:59:57Z,2021,20,0,333.8333,333.8333,78.806,11.074,1010.4,-1.28,-999.0,yes,yes,no,300234068340970,BD2GHI,AOML,ALLIANCE,North
2021-11-29T21:00:00Z,2021,21,0,333.875,333.875,78.806,11.074,1010.0,-1.27,-999.0,yes,yes,no,300234068340970,BD2GHI,AOML,ALLIANCE,North
2021-11-29T22:00:02Z,2021,22,0,333.9167,333.9167,78.806,11.074,1009.9,-1.24,-999.0,yes,yes,no,300234068340970,BD2GHI,AOML,ALLIANCE,North
2021-11-29T22:59:57Z,2021,23,0,333.9583,333.9583,78.806,11.074,1009.8,-1.08,-999.0,yes,yes,no,300234068340970,BD2GHI,AOML,ALLIANCE,North
2021-11-30T00:00:00Z,2021,0,0,334.0,334.0,78.806,11.073,1009.8,-1.04,-999.0,yes,yes,no,300234068340970,BD2GHI,AOML,ALLIANCE,North
2021-11-30T01:00:02Z,2021,1,0,334.0417,334.0417,78.806,11.073,1009.6,-1.11,-999.0,yes,yes,no,300234068340970,BD2GHI,AOML,ALLIANCE,North
2021-11-30T01:59:57Z,2021,2,0,334.0833,334.0833,78.806,11.074,1009.5,-1.16,-999.0,yes,yes,no,300234068340970,BD2GHI,AOML,ALLIANCE,North
2021-11-30T03:00:00Z,2021,3,0,334.125,334.125,78.806,11.074,1009.1,-1.23,-999.0,yes,yes,no,300234068340970,BD2GHI,AOML,ALLIANCE,North
2021-11-30T04:00:02Z,2021,4,0,334.1667,334.1667,78.806,11.074,1009.1,-1.3,-999.0,yes,yes,no,300234068340970,BD2GHI,AOML,ALLIANCE,North
2021-11-30T04:59:57Z,2021,5,0,334.2083,334.2083,78.807,11.074,1009.1,-0.92,-999.0,yes,yes,no,300234068340970,BD2GHI,AOML,ALLIANCE,North
2021-11-30T06:00:00Z,2021,6,0,334.25,334.25,78.806,11.077,1009.1,-0.84,-999.0,yes,yes,no,300234068340970,BD2GHI,AOML,ALLIANCE,North
2021-11-30T07:00:02Z,2021,7,0,334.2917,334.2917,78.806,11.077,1009.1,-0.88,-999.0,yes,yes,no,300234068340970,BD2GHI,AOML,ALLIANCE,North
2021-11-30T07:59:57Z,2021,8,0,334.3333,334.3333,78.806,11.075,1009.1,-0.86,-999.0,yes,yes,no,300234068340970,BD2GHI,AOML,ALLIANCE,North
2021-11-30T09:00:00Z,2021,9,0,334.375,334.375,78.806,11.074,1009.4,-0.9,-999.0,yes,yes,no,300234068340970,BD2GHI,AOML,ALLIANCE,North
2021-11-30T10:00:02Z,2021,10,0,334.4167,334.4167,78.806,11.074,1009.1,-0.96,-999.0,yes,yes,no,300234068340970,BD2GHI,AOML,ALLIANCE,North
2021-11-30T10:59:57Z,2021,11,0,334.4583,334.4583,78.805,11.074,1009.4,-1.14,-999.0,yes,yes,no,300234068340970,BD2GHI,AOML,ALLIANCE,North
2021-11-30T12:00:00Z,2021,12,0,334.5,334.5,78.807,11.078,1009.3,-1.05,-999.0,yes,yes,no,300234068340970,BD2GHI,AOML,ALLIANCE,North
2021-11-30T13:00:02Z,2021,13,0,334.5417,334.5417,78.806,11.078,1009.1,-1.03,-999.0,yes,yes,no,300234068340970,BD2GHI,AOML,ALLIANCE,North
2021-11-30T13:59:57Z,2021,14,0,334.5833,334.5833,78.806,11.074,1009.2,-1.19,-999.0,yes,yes,no,300234068340970,BD2GHI,AOML,ALLIANCE,North
2021-11-30T15:00:00Z,2021,15,0,334.625,334.625,78.806,11.074,1009.3,-1.14,-999.0,yes,yes,no,300234068340970,BD2GHI,AOML,ALLIANCE,North
2021-11-30T16:00:02Z,2021,16,0,334.6667,334.6667,78.806,11.074,1009.5,-0.84,-999.0,yes,yes,no,300234068340970,BD2GHI,AOML,ALLIANCE,North
2021-11-30T16:59:57Z,2021,17,0,334.7083,334.7083,78.806,11.074,1009.8,-0.55,-999.0,yes,yes,no,300234068340970,BD2GHI,AOML,ALLIANCE,North
2021-11-30T18:00:00Z,2021,18,0,334.75,334.75,78.806,11.071,1010.3,-0.46,-999.0,yes,yes,no,300234068340970,BD2GHI,AOML,ALLIANCE,North
2021-11-30T19:00:02Z,2021,19,0,334.7917,334.7917,78.806,11.071,1010.5,-0.65,-999.0,yes,yes,no,300234068340970,BD2GHI,AOML,ALLIANCE,North
2021-11-30T19:59:57Z,2021,20,0,334.8333,334.8333,78.806,11.073,1010.8,-0.75,-999.0,yes,yes,no,300234068340970,BD2GHI,AOML,ALLIANCE,North
2021-11-30T21:00:00Z,2021,21,0,334.875,334.875,78.806,11.075,1011.1,-0.65,-999.0,yes,yes,no,300234068340970,BD2GHI,AOML,ALLIANCE,North
2021-11-30T22:00:02Z,2021,22,0,334.9167,334.9167,78.807,11.075,1011.7,-0.55,-999.0,yes,yes,no,300234068340970,BD2GHI,AOML,ALLIANCE,North
2021-11-30T22:59:57Z,2021,23,0,334.9583,334.9583,78.809,11.082,1012.2,-0.55,-999.0,yes,yes,no,300234068340970,BD2GHI,AOML,ALLIANCE,North
2021-12-01T00:00:00Z,2021,0,0,335.0,335.0,78.806,11.074,1012.3,-0.29,-999.0,yes,yes,no,300234068340970,BD2GHI,AOML,ALLIANCE,North
2021-12-01T01:00:02Z,2021,1,0,335.0417,335.0417,78.806,11.074,1012.9,-0.29,-999.0,yes,yes,no,300234068340970,BD2GHI,AOML,ALLIANCE,North
2021-12-01T01:59:57Z,2021,2,0,335.0833,335.0833,78.806,11.074,1013.3,-0.24,-999.0,yes,yes,no,300234068340970,BD2GHI,AOML,ALLIANCE,North
2021-12-01T03:00:00Z,2021,3,0,335.125,335.125,78.806,11.074,1013.8,-0.23,-999.0,yes,yes,no,300234068340970,BD2GHI,AOML,ALLIANCE,North
2021-12-01T04:00:02Z,2021,4,0,335.1667,335.1667,78.806,11.074,1014.6,-0.1,-999.0,yes,yes,no,300234068340970,BD2GHI,AOML,ALLIANCE,North
2021-12-01T04:59:57Z,2021,5,0,335.2083,335.2083,78.807,11.074,1014.8,-0.04,-999.0,yes,yes,no,300234068340970,BD2GHI,AOML,ALLIANCE,North